Philadelphia Wings Airport, PA

4:56 AM EDT on June 29, 2017 (GMT -0400)
Philadelphia Wings Airport

Weather History for KLOM - January, 2013

Change the Weather History Date:

Sunday, January 20, 2013

  Actual Average (KPNE) Record (KPNE)
Temperature  
Mean Temperature 44 °F -  
Max Temperature 55 °F 34 °F 57 °F (2006)
Min Temperature 32 °F 21 °F 16 °F (1997)
Degree Days  
Heating Degree Days 22    
Moisture  
Dew Point 24 °F    
Average Humidity 49    
Maximum Humidity 75    
Minimum Humidity 26    
Precipitation  
Precipitation 0.00 in - - ()
Sea Level Pressure  
Sea Level Pressure 29.87 in    
Wind  
Wind Speed 9 mph (West)    
Max Wind Speed 22 mph    
Max Gust Speed 31 mph    
Visibility 10 miles    
Events      
Averages and records for this station are not official NWS values.
T = Trace of Precipitation, MM = Missing Value Source: NWS Daily Summary

Daily Weather History Graph

Daily Weather History Graph

Search for Another Location

Airport or City:

Trip Planner

Search our weather history database for the weather conditions in past years. The results will help you decide how hot, cold, wet, or windy it might be!

Date:

Astronomy

Jan. 20, 2013 Rise Set
Actual Time 7:18 AM EST 5:05 PM EST
Civil Twilight 6:49 AM EST 5:35 PM EST
Nautical Twilight 6:16 AM EST 6:08 PM EST
Astronomical Twilight 5:43 AM EST 6:40 PM EST
Moon 12:05 PM EST (1/20) 1:48 AM EST (1/20)
Length of Visible Light 10h 46m
Length of Day
9h 47m
Waxing Gibbous, 66% of the Moon is Illuminated
Jan 20
Waxing Gibbous
Jan 26
Full
Feb 3
Last Quarter
Feb 10
New
Feb 17
First Quarter

Hourly Weather History & Observations

Time (EST) Temp. Windchill Dew Point Humidity Pressure Visibility Wind Dir Wind Speed Gust Speed Precip Events Conditions
12:15 AM 41.0 °F 37.1 °F 32.0 °F 70% 29.91 in 10.0 mi SW 5.8 mph - N/A   Clear
12:35 AM 39.2 °F 33.6 °F 32.0 °F 75% 29.89 in 10.0 mi SSW 8.1 mph - N/A   Clear
12:55 AM 41.0 °F 37.1 °F 32.0 °F 70% 29.88 in 10.0 mi SSW 5.8 mph - N/A   Clear
1:15 AM 39.2 °F 34.2 °F 32.0 °F 75% 29.88 in 10.0 mi SW 6.9 mph - N/A   Clear
1:35 AM 41.0 °F 38.0 °F 32.0 °F 70% 29.88 in 10.0 mi SW 4.6 mph - N/A   Clear
1:55 AM 41.0 °F 37.1 °F 32.0 °F 70% 29.87 in 10.0 mi SW 5.8 mph - N/A   Clear
2:15 AM 41.0 °F 38.0 °F 32.0 °F 70% 29.87 in 10.0 mi WSW 4.6 mph - N/A   Clear
2:35 AM 41.0 °F 38.0 °F 30.2 °F 65% 29.86 in 10.0 mi WSW 4.6 mph - N/A   Clear
3:15 AM 41.0 °F 37.1 °F 30.2 °F 65% 29.85 in 10.0 mi SW 5.8 mph - N/A   Clear
3:35 AM 41.0 °F 35.8 °F 30.2 °F 65% 29.84 in 10.0 mi SW 8.1 mph - N/A   Clear
3:55 AM 41.0 °F 35.8 °F 30.2 °F 65% 29.83 in 10.0 mi SW 8.1 mph - N/A   Clear
4:15 AM 41.0 °F 35.2 °F 30.2 °F 65% 29.82 in 10.0 mi SW 9.2 mph - N/A   Clear
4:35 AM 41.0 °F 37.1 °F 30.2 °F 65% 29.81 in 10.0 mi SW 5.8 mph - N/A   Clear
4:55 AM 41.0 °F 35.2 °F 30.2 °F 65% 29.80 in 10.0 mi SW 9.2 mph - N/A   Clear
5:15 AM 41.0 °F 35.2 °F 30.2 °F 65% 29.80 in 10.0 mi SW 9.2 mph - N/A   Clear
5:35 AM 41.0 °F 36.4 °F 30.2 °F 65% 29.79 in 10.0 mi SW 6.9 mph - N/A   Clear
5:55 AM 39.2 °F 34.2 °F 30.2 °F 70% 29.79 in 10.0 mi SW 6.9 mph - N/A   Clear
6:15 AM 39.2 °F 32.5 °F 30.2 °F 70% 29.78 in 10.0 mi SW 10.4 mph - N/A   Clear
6:35 AM 39.2 °F 33.0 °F 30.2 °F 70% 29.78 in 10.0 mi SW 9.2 mph - N/A   Clear
7:15 AM 39.2 °F 33.0 °F 30.2 °F 70% 29.78 in 10.0 mi SW 9.2 mph - N/A   Clear
7:35 AM 39.2 °F 34.2 °F 30.2 °F 70% 29.78 in 10.0 mi SW 6.9 mph - N/A   Clear
8:15 AM 41.0 °F 33.9 °F 30.2 °F 65% 29.78 in 10.0 mi SW 12.7 mph - N/A   Clear
8:35 AM 42.8 °F 38.0 °F 30.2 °F 61% 29.79 in 10.0 mi SW 8.1 mph - N/A   Clear
8:55 AM 44.6 °F 39.7 °F 30.2 °F 57% 29.79 in 10.0 mi SW 9.2 mph - N/A   Clear
9:15 AM 46.4 °F 41.9 °F 30.2 °F 53% 29.80 in 10.0 mi WSW 9.2 mph - N/A   Clear
9:35 AM 48.2 °F - 30.2 °F 50% 29.80 in 10.0 mi WSW 12.7 mph 18.4 mph N/A   Clear
9:55 AM 50.0 °F - 30.2 °F 47% 29.79 in 10.0 mi SW 15.0 mph 23.0 mph N/A   Clear
10:15 AM 50.0 °F - 30.2 °F 47% 29.79 in 10.0 mi WSW 17.3 mph 24.2 mph N/A   Clear
10:35 AM 51.8 °F - 30.2 °F 44% 29.78 in 10.0 mi WSW 17.3 mph 25.3 mph N/A   Clear
10:55 AM 51.8 °F - 30.2 °F 44% 29.78 in 10.0 mi WSW 9.2 mph 20.7 mph N/A   Clear
11:15 AM 53.6 °F - 30.2 °F 41% 29.77 in 10.0 mi WSW 16.1 mph 31.1 mph N/A   Clear
11:35 AM 53.6 °F - 30.2 °F 41% 29.77 in 10.0 mi WSW 13.8 mph 25.3 mph N/A   Clear
11:55 AM 53.6 °F - 30.2 °F 41% 29.76 in 10.0 mi West 13.8 mph 26.5 mph N/A   Clear
12:15 PM 53.6 °F - 30.2 °F 41% 29.75 in 10.0 mi WSW 16.1 mph 28.8 mph N/A   Scattered Clouds
12:35 PM 53.6 °F - 30.2 °F 41% 29.75 in 10.0 mi West 16.1 mph 29.9 mph N/A   Scattered Clouds
1:15 PM 53.6 °F - 28.4 °F 38% 29.75 in 10.0 mi WSW 15.0 mph 27.6 mph N/A   Clear
1:35 PM 55.4 °F - 23.0 °F 29% 29.75 in 10.0 mi West 15.0 mph 29.9 mph N/A   Clear
1:55 PM 55.4 °F - 23.0 °F 29% 29.75 in 10.0 mi West 10.4 mph 31.1 mph N/A   Clear
2:15 PM 53.6 °F - 23.0 °F 30% 29.77 in 10.0 mi West 21.9 mph 31.1 mph N/A   Clear
2:35 PM 55.4 °F - 24.8 °F 31% 29.78 in 10.0 mi WNW 17.3 mph 24.2 mph N/A   Clear
2:55 PM 53.6 °F - 23.0 °F 30% 29.80 in 10.0 mi NW 9.2 mph 21.9 mph N/A   Clear
3:15 PM 51.8 °F - 19.4 °F 28% 29.81 in 10.0 mi NW 13.8 mph 23.0 mph N/A   Clear
3:35 PM 51.8 °F - 17.6 °F 26% 29.82 in 10.0 mi NW 11.5 mph 21.9 mph N/A   Clear
4:15 PM 50.0 °F - 17.6 °F 28% 29.85 in 10.0 mi WNW 10.4 mph 19.6 mph N/A   Clear
4:35 PM 48.2 °F - 17.6 °F 30% 29.86 in 10.0 mi WNW 11.5 mph 21.9 mph N/A   Clear
4:55 PM 46.4 °F 41.1 °F 14.0 °F 27% 29.88 in 10.0 mi NW 11.5 mph 23.0 mph N/A   Clear
5:15 PM 44.6 °F 38.8 °F 14.0 °F 29% 29.89 in 10.0 mi WNW 11.5 mph 28.8 mph N/A   Clear
5:35 PM 44.6 °F 39.2 °F 12.2 °F 27% 29.90 in 10.0 mi WNW 10.4 mph 20.7 mph N/A   Clear
5:55 PM 42.8 °F 36.6 °F 12.2 °F 29% 29.92 in 10.0 mi WNW 11.5 mph 19.6 mph N/A   Clear
6:15 PM 42.8 °F 36.2 °F 15.8 °F 34% 29.93 in 10.0 mi NW 12.7 mph 19.6 mph N/A   Clear
6:35 PM 41.0 °F 34.3 °F 17.6 °F 39% 29.95 in 10.0 mi NW 11.5 mph 19.6 mph N/A   Clear
6:55 PM 39.2 °F 32.5 °F 17.6 °F 42% 29.97 in 10.0 mi NW 10.4 mph 16.1 mph N/A   Clear
7:15 PM 37.4 °F 30.8 °F 15.8 °F 41% 29.97 in 10.0 mi NW 9.2 mph 17.3 mph N/A   Clear
7:35 PM 37.4 °F 30.8 °F 17.6 °F 45% 29.98 in 10.0 mi NW 9.2 mph 18.4 mph N/A   Clear
7:55 PM 35.6 °F 27.5 °F 15.8 °F 44% 29.98 in 10.0 mi NW 11.5 mph 17.3 mph N/A   Clear
8:15 PM 35.6 °F 27.1 °F 14.0 °F 41% 29.99 in 10.0 mi NW 12.7 mph 20.7 mph N/A   Clear
8:35 PM 35.6 °F 27.5 °F 15.8 °F 44% 29.99 in 10.0 mi NNW 11.5 mph 23.0 mph N/A   Clear
8:55 PM 33.8 °F 24.8 °F 14.0 °F 44% 30.00 in 10.0 mi WNW 12.7 mph 19.6 mph N/A   Clear
9:15 PM 33.8 °F 25.3 °F 14.0 °F 44% 30.01 in 10.0 mi NW 11.5 mph 18.4 mph N/A   Clear
9:35 PM 33.8 °F 26.4 °F 14.0 °F 44% 30.02 in 10.0 mi NW 9.2 mph 18.4 mph N/A   Clear
9:55 PM 33.8 °F 27.0 °F 14.0 °F 44% 30.03 in 10.0 mi NW 8.1 mph - N/A   Clear
10:15 PM 32.0 °F 24.8 °F 14.0 °F 48% 30.03 in 10.0 mi WNW 8.1 mph 18.4 mph N/A   Clear
10:35 PM 32.0 °F 25.6 °F 12.2 °F 44% 30.04 in 10.0 mi NW 6.9 mph - N/A   Clear
10:55 PM 32.0 °F 23.6 °F 12.2 °F 44% 30.05 in 10.0 mi WNW 10.4 mph 18.4 mph N/A   Clear
11:15 PM 32.0 °F 24.8 °F 12.2 °F 44% 30.05 in 10.0 mi NW 8.1 mph - N/A   Clear
11:35 PM 32.0 °F 25.6 °F 14.0 °F 48% 30.05 in 10.0 mi NW 6.9 mph - N/A   Clear
11:55 PM 32.0 °F 27.5 °F 12.2 °F 44% 30.05 in 10.0 mi WNW 4.6 mph - N/A   Clear